| time (UTC) | temp F | wind direction | speed MPH | gust MPH | rain 1hr in | rain 24hr in | rain mn in | humidity % | barometer mb |
| 20260906115016 | 67 | 52 | 0.0 | 1.0 | 0.00 | 0.00 | 0.00 | 91 | 1012.3 |
| 20260906114032 | 67 | 50 | 0.0 | 1.0 | 0.00 | 0.00 | 0.00 | 91 | 1012.1 |
| 20260906113028 | 67 | 30 | 0.0 | 1.0 | 0.00 | 0.00 | 0.00 | 91 | 1011.9 |
| 20260906112025 | 67 | 0.0 | 0.0 | 0.00 | 0.00 | 0.00 | 91 | 1011.7 | |
| 20260906111021 | 67 | 41 | 1.0 | 2.0 | 0.00 | 0.00 | 0.00 | 91 | 1011.6 |
| 20260906110017 | 67 | 37 | 1.0 | 2.0 | 0.00 | 0.00 | 0.00 | 91 | 1011.7 |
| 20260906105033 | 67 | 3 | 1.0 | 3.0 | 0.00 | 0.00 | 0.00 | 91 | 1011.5 |
| 20260906104109 | 67 | 16 | 1.0 | 4.0 | 0.00 | 0.00 | 0.00 | 91 | 1011.5 |
| 20260906103025 | 67 | 41 | 1.0 | 2.0 | 0.00 | 0.00 | 0.00 | 91 | 1011.3 |
| 20260906102020 | 67 | 37 | 1.0 | 3.0 | 0.00 | 0.00 | 0.00 | 91 | 1011.2 |
| 20260906101017 | 68 | 33 | 1.0 | 3.0 | 0.00 | 0.00 | 0.00 | 90 | 1011.3 |
| 20260906100033 | 68 | 34 | 1.0 | 3.0 | 0.00 | 0.00 | 0.00 | 90 | 1011.3 |
| 20260906095028 | 68 | 21 | 2.0 | 6.0 | 0.00 | 0.00 | 0.00 | 90 | 1011.1 |
| 20260906094025 | 68 | 59 | 1.0 | 2.0 | 0.00 | 0.00 | 0.00 | 90 | 1011.1 |
| 20260906093022 | 68 | 47 | 1.0 | 2.0 | 0.00 | 0.00 | 0.00 | 90 | 1011.0 |
| 20260906092038 | 68 | 18 | 1.0 | 4.0 | 0.00 | 0.00 | 0.00 | 90 | 1011.1 |
| 20260906091034 | 68 | 19 | 1.0 | 7.0 | 0.00 | 0.00 | 0.00 | 90 | 1011.1 |
| 20260906090030 | 69 | 21 | 1.0 | 2.0 | 0.00 | 0.00 | 0.00 | 90 | 1011.0 |
| 20260906085026 | 69 | 14 | 1.0 | 3.0 | 0.00 | 0.00 | 0.00 | 90 | 1011.1 |
| 20260906084022 | 69 | 19 | 0.0 | 3.0 | 0.00 | 0.00 | 0.00 | 90 | 1010.9 |
| 20260906083018 | 69 | 10 | 0.0 | 2.0 | 0.00 | 0.00 | 0.00 | 89 | 1011.0 |
| 20260906082033 | 69 | 12 | 0.0 | 4.0 | 0.00 | 0.00 | 0.00 | 89 | 1011.0 |
| 20260906081029 | 69 | 31 | 1.0 | 3.0 | 0.00 | 0.00 | 0.00 | 89 | 1011.0 |
| 20260906080025 | 69 | 15 | 0.0 | 2.0 | 0.00 | 0.00 | 0.00 | 89 | 1011.1 |
| 20260906075042 | 70 | 14 | 0.0 | 2.0 | 0.00 | 0.00 | 0.00 | 89 | 1011.3 |
| 20260906074018 | 70 | 13 | 1.0 | 2.0 | 0.00 | 0.00 | 0.00 | 89 | 1011.2 |
| 20260906073034 | 70 | 18 | 0.0 | 2.0 | 0.00 | 0.00 | 0.00 | 89 | 1011.1 |
| 20260906072029 | 70 | 14 | 0.0 | 2.0 | 0.00 | 0.00 | 0.00 | 89 | 1011.2 |
| 20260906071025 | 70 | 4 | 0.0 | 2.0 | 0.00 | 0.00 | 0.00 | 88 | 1011.3 |
| 20260906070021 | 70 | 29 | 1.0 | 3.0 | 0.00 | 0.00 | 0.00 | 88 | 1011.3 |
| 20260906065017 | 71 | 22 | 1.0 | 3.0 | 0.00 | 0.00 | 0.00 | 88 | 1011.4 |
| 20260906064032 | 71 | 29 | 1.0 | 3.0 | 0.00 | 0.00 | 0.00 | 88 | 1011.2 |
| 20260906063028 | 71 | 27 | 0.0 | 1.0 | 0.00 | 0.00 | 0.00 | 88 | 1011.1 |
| 20260906062024 | 71 | 12 | 0.0 | 3.0 | 0.00 | 0.00 | 0.00 | 88 | 1011.1 |
| 20260906061020 | 72 | 22 | 0.0 | 2.0 | 0.00 | 0.00 | 0.00 | 87 | 1011.2 |
| 20260906060015 | 72 | 33 | 1.0 | 2.0 | 0.00 | 0.00 | 0.00 | 87 | 1011.2 |
| 20260906055051 | 72 | 58 | 1.0 | 3.0 | 0.00 | 0.00 | 0.00 | 87 | 1011.2 |
| 20260906054027 | 72 | 35 | 1.0 | 3.0 | 0.00 | 0.00 | 0.00 | 87 | 1011.3 |
| 20260906053023 | 72 | 59 | 1.0 | 3.0 | 0.00 | 0.00 | 0.00 | 87 | 1011.3 |
| 20260906052019 | 72 | 65 | 2.0 | 8.0 | 0.00 | 0.00 | 0.00 | 87 | 1011.1 |
| 20260906051035 | 72 | 59 | 1.0 | 6.0 | 0.00 | 0.00 | 0.00 | 87 | 1011.1 |
| 20260906050031 | 72 | 50 | 1.0 | 3.0 | 0.00 | 0.00 | 0.00 | 87 | 1011.0 |
| 20260906045027 | 72 | 52 | 1.0 | 4.0 | 0.00 | 0.00 | 0.00 | 87 | 1011.0 |
| 20260906044025 | 72 | 79 | 2.0 | 4.0 | 0.00 | 0.00 | 0.00 | 87 | 1010.9 |
| 20260906043020 | 72 | 68 | 2.0 | 8.0 | 0.00 | 0.00 | 0.00 | 87 | 1010.8 |
| 20260906042036 | 72 | 67 | 2.0 | 7.0 | 0.00 | 0.00 | 0.00 | 87 | 1010.8 |
| 20260906041032 | 72 | 61 | 1.0 | 3.0 | 0.00 | 0.00 | 0.00 | 87 | 1010.6 |
| 20260906040027 | 72 | 77 | 3.0 | 8.0 | 0.00 | 0.00 | 0.00 | 86 | 1010.5 |
| 20260906035023 | 72 | 79 | 2.0 | 4.0 | 0.00 | 0.00 | 0.00 | 86 | 1010.6 |
| 20260906034019 | 72 | 65 | 2.0 | 4.0 | 0.00 | 0.00 | 0.00 | 86 | 1010.7 |
| 20260906033055 | 72 | 63 | 1.0 | 6.0 | 0.00 | 0.00 | 0.00 | 86 | 1010.6 |
| 20260906032031 | 72 | 79 | 3.0 | 9.0 | 0.00 | 0.00 | 0.00 | 86 | 1010.7 |
| 20260906031027 | 73 | 103 | 2.0 | 8.0 | 0.00 | 0.00 | 0.00 | 86 | 1010.9 |
| 20260906030043 | 73 | 79 | 2.0 | 6.0 | 0.00 | 0.00 | 0.00 | 85 | 1011.0 |
| 20260906025039 | 73 | 73 | 2.0 | 6.0 | 0.00 | 0.00 | 0.00 | 85 | 1010.9 |
| 20260906024035 | 73 | 85 | 2.0 | 4.0 | 0.00 | 0.00 | 0.00 | 85 | 1011.1 |
| 20260906023031 | 73 | 83 | 2.0 | 8.0 | 0.00 | 0.00 | 0.00 | 85 | 1010.8 |
| 20260906022027 | 73 | 69 | 3.0 | 10.0 | 0.00 | 0.00 | 0.00 | 85 | 1011.0 |
| 20260906021023 | 73 | 67 | 3.0 | 7.0 | 0.00 | 0.00 | 0.00 | 85 | 1010.8 |
| 20260906020020 | 73 | 79 | 2.0 | 4.0 | 0.00 | 0.00 | 0.00 | 85 | 1010.8 |
| 20260906015015 | 73 | 72 | 4.0 | 10.0 | 0.00 | 0.00 | 0.00 | 85 | 1010.9 |
| 20260906014032 | 73 | 59 | 3.0 | 8.0 | 0.00 | 0.00 | 0.00 | 85 | 1011.0 |
| 20260906013028 | 73 | 75 | 3.0 | 10.0 | 0.00 | 0.00 | 0.00 | 84 | 1011.1 |
| 20260906012024 | 73 | 37 | 3.0 | 9.0 | 0.00 | 0.00 | 0.00 | 84 | 1011.0 |
| 20260906011020 | 73 | 75 | 4.0 | 15.0 | 0.00 | 0.00 | 0.00 | 84 | 1011.1 |
| 20260906010015 | 74 | 72 | 3.0 | 10.0 | 0.00 | 0.00 | 0.00 | 84 | 1010.9 |
| 20260906005032 | 74 | 67 | 4.0 | 10.0 | 0.00 | 0.00 | 0.00 | 83 | 1010.9 |
| 20260906004027 | 74 | 73 | 4.0 | 11.0 | 0.00 | 0.00 | 0.00 | 83 | 1010.9 |
| 20260906003024 | 75 | 61 | 2.0 | 7.0 | 0.00 | 0.00 | 0.00 | 83 | 1010.7 |
| 20260906002039 | 75 | 67 | 4.0 | 9.0 | 0.00 | 0.00 | 0.00 | 82 | 1010.6 |
| 20260906001015 | 76 | 61 | 5.0 | 13.0 | 0.00 | 0.00 | 0.00 | 82 | 1010.7 |
| 20260906000032 | 76 | 74 | 3.0 | 7.0 | 0.00 | 0.00 | 0.00 | 82 | 1010.6 |
| 20260905235028 | 77 | 89 | 3.0 | 8.0 | 0.00 | 0.00 | 0.00 | 82 | 1010.4 |
| 20260905234024 | 78 | 78 | 3.0 | 10.0 | 0.00 | 0.00 | 0.00 | 81 | 1010.4 |
| 20260905233019 | 78 | 76 | 3.0 | 10.0 | 0.00 | 0.00 | 0.00 | 81 | 1010.4 |
| 20260905232016 | 79 | 56 | 3.0 | 10.0 | 0.00 | 0.00 | 0.00 | 81 | 1010.2 |
| 20260905231124 | 79 | 52 | 3.0 | 10.0 | 0.00 | 0.00 | 0.00 | 81 | 1010.1 |
| 20260905230027 | 80 | 68 | 3.0 | 10.0 | 0.00 | 0.00 | 0.00 | 81 | 1010.0 |
| 20260905225023 | 80 | 62 | 3.0 | 11.0 | 0.00 | 0.00 | 0.00 | 80 | 1009.8 |
| 20260905224019 | 81 | 74 | 4.0 | 16.0 | 0.00 | 0.00 | 0.00 | 80 | 1009.7 |
| 20260905223055 | 81 | 65 | 3.0 | 7.0 | 0.00 | 0.00 | 0.00 | 80 | 1009.5 |
| 20260905222032 | 81 | 35 | 2.0 | 10.0 | 0.00 | 0.00 | 0.00 | 80 | 1009.6 |
| 20260905221028 | 81 | 2 | 3.0 | 9.0 | 0.00 | 0.00 | 0.00 | 81 | 1009.5 |
| 20260905220044 | 82 | 66 | 3.0 | 9.0 | 0.00 | 0.00 | 0.00 | 81 | 1009.5 |
| 20260905215020 | 81 | 40 | 2.0 | 6.0 | 0.00 | 0.00 | 0.00 | 82 | 1009.7 |
| 20260905214035 | 81 | 5 | 3.0 | 7.0 | 0.00 | 0.00 | 0.00 | 82 | 1009.7 |
| 20260905213052 | 80 | 3 | 2.0 | 7.0 | 0.00 | 0.00 | 0.00 | 82 | 1009.7 |
| 20260905212027 | 81 | 23 | 2.0 | 8.0 | 0.00 | 0.00 | 0.00 | 83 | 1009.6 |
| 20260905211022 | 81 | 60 | 2.0 | 3.0 | 0.00 | 0.00 | 0.00 | 84 | 1009.7 |
| 20260905210018 | 80 | 6 | 2.0 | 6.0 | 0.00 | 0.00 | 0.00 | 84 | 1009.8 |
| 20260905205034 | 80 | 58 | 2.0 | 8.0 | 0.00 | 0.00 | 0.00 | 84 | 1009.9 |
| 20260905204031 | 80 | 61 | 2.0 | 6.0 | 0.00 | 0.00 | 0.00 | 84 | 1010.0 |
| 20260905203046 | 80 | 63 | 2.0 | 4.0 | 0.00 | 0.00 | 0.00 | 85 | 1010.0 |
| 20260905202022 | 79 | 34 | 2.0 | 4.0 | 0.00 | 0.00 | 0.00 | 85 | 1009.7 |
| 20260905201018 | 79 | 18 | 2.0 | 4.0 | 0.00 | 0.00 | 0.00 | 84 | 1009.8 |
| 20260905200035 | 78 | 10 | 1.0 | 6.0 | 0.00 | 0.00 | 0.00 | 84 | 1009.7 |
| 20260905195051 | 79 | 17 | 2.0 | 7.0 | 0.00 | 0.00 | 0.00 | 84 | 1009.7 |
| 20260905194026 | 79 | 63 | 3.0 | 8.0 | 0.00 | 0.00 | 0.00 | 84 | 1009.7 |
| 20260905193023 | 80 | 39 | 2.0 | 4.0 | 0.00 | 0.00 | 0.00 | 84 | 1009.6 |
| 20260905192018 | 80 | 66 | 2.0 | 4.0 | 0.00 | 0.00 | 0.00 | 84 | 1009.8 |
| 20260905191055 | 81 | 39 | 2.0 | 4.0 | 0.00 | 0.00 | 0.00 | 84 | 1009.6 |
| 20260905190030 | 81 | 57 | 2.0 | 7.0 | 0.00 | 0.00 | 0.00 | 84 | 1009.9 |
| 20260905185027 | 81 | 53 | 2.0 | 6.0 | 0.00 | 0.00 | 0.00 | 84 | 1009.6 |
| 20260905184023 | 82 | 36 | 3.0 | 10.0 | 0.00 | 0.00 | 0.00 | 84 | 1009.8 |
| 20260905183039 | 82 | 50 | 2.0 | 7.0 | 0.00 | 0.00 | 0.00 | 85 | 1009.7 |
| 20260905182035 | 82 | 71 | 2.0 | 6.0 | 0.00 | 0.00 | 0.00 | 85 | 1009.8 |
| 20260905181031 | 82 | 58 | 2.0 | 4.0 | 0.00 | 0.00 | 0.00 | 85 | 1009.4 |
| 20260905180026 | 82 | 67 | 3.0 | 8.0 | 0.00 | 0.00 | 0.00 | 86 | 1009.5 |
| 20260905175023 | 82 | 29 | 2.0 | 6.0 | 0.00 | 0.00 | 0.00 | 86 | 1009.1 |
| 20260905174019 | 82 | 51 | 2.0 | 7.0 | 0.00 | 0.00 | 0.00 | 86 | 1009.2 |
| 20260905173034 | 82 | 47 | 2.0 | 6.0 | 0.00 | 0.00 | 0.00 | 86 | 1009.0 |
| 20260905172031 | 82 | 45 | 2.0 | 8.0 | 0.00 | 0.00 | 0.00 | 87 | 1009.1 |
| 20260905171026 | 83 | 39 | 3.0 | 7.0 | 0.00 | 0.00 | 0.00 | 87 | 1009.2 |
| 20260905170042 | 82 | 83 | 3.0 | 7.0 | 0.00 | 0.00 | 0.00 | 88 | 1009.1 |
| 20260905165019 | 81 | 60 | 2.0 | 7.0 | 0.00 | 0.00 | 0.00 | 88 | 1009.3 |
| 20260905164035 | 81 | 42 | 2.0 | 7.0 | 0.00 | 0.00 | 0.00 | 88 | 1009.2 |
| 20260905163030 | 81 | 56 | 2.0 | 8.0 | 0.00 | 0.00 | 0.00 | 89 | 1009.2 |
| 20260905162026 | 80 | 65 | 2.0 | 4.0 | 0.00 | 0.00 | 0.00 | 89 | 1009.1 |
| 20260905161021 | 80 | 43 | 2.0 | 4.0 | 0.00 | 0.00 | 0.00 | 89 | 1009.0 |
| 20260905160017 | 80 | 9 | 2.0 | 6.0 | 0.00 | 0.00 | 0.00 | 89 | 1009.1 |
| 20260905155033 | 80 | 47 | 2.0 | 8.0 | 0.00 | 0.00 | 0.00 | 89 | 1009.2 |
| 20260905154030 | 79 | 77 | 2.0 | 8.0 | 0.00 | 0.00 | 0.00 | 90 | 1008.8 |
| 20260905153026 | 79 | 87 | 3.0 | 8.0 | 0.00 | 0.00 | 0.00 | 90 | 1008.9 |
| 20260905152022 | 78 | 83 | 2.0 | 3.0 | 0.00 | 0.00 | 0.00 | 91 | 1008.6 |
| 20260905151018 | 77 | 35 | 2.0 | 7.0 | 0.00 | 0.00 | 0.00 | 91 | 1008.6 |
| 20260905150035 | 77 | 59 | 2.0 | 7.0 | 0.00 | 0.00 | 0.00 | 91 | 1008.4 |
| 20260905145051 | 76 | 67 | 3.0 | 9.0 | 0.00 | 0.00 | 0.00 | 91 | 1008.4 |
| 20260905144047 | 76 | 78 | 2.0 | 6.0 | 0.00 | 0.00 | 0.00 | 91 | 1008.4 |
| 20260905143023 | 76 | 57 | 2.0 | 7.0 | 0.00 | 0.00 | 0.00 | 91 | 1008.5 |
| 20260905142019 | 75 | 72 | 2.0 | 8.0 | 0.00 | 0.00 | 0.00 | 91 | 1008.7 |
| 20260905141035 | 75 | 54 | 1.0 | 6.0 | 0.00 | 0.00 | 0.00 | 91 | 1008.5 |
| 20260905140031 | 75 | 82 | 2.0 | 6.0 | 0.00 | 0.00 | 0.00 | 91 | 1008.5 |
| 20260905135047 | 75 | 51 | 3.0 | 11.0 | 0.00 | 0.00 | 0.00 | 91 | 1008.6 |
| 20260905134043 | 75 | 79 | 3.0 | 9.0 | 0.00 | 0.00 | 0.00 | 91 | 1008.6 |
| 20260905133019 | 75 | 53 | 2.0 | 8.0 | 0.00 | 0.00 | 0.00 | 91 | 1008.8 |
| 20260905132035 | 75 | 32 | 2.0 | 7.0 | 0.00 | 0.00 | 0.00 | 91 | 1008.9 |
| 20260905131030 | 75 | 75 | 1.0 | 6.0 | 0.00 | 0.00 | 0.00 | 91 | 1009.0 |
| 20260905130026 | 75 | 62 | 1.0 | 7.0 | 0.00 | 0.00 | 0.00 | 91 | 1008.6 |
| 20260905125103 | 75 | 74 | 2.0 | 6.0 | 0.00 | 0.00 | 0.00 | 91 | 1008.4 |
| 20260905124019 | 75 | 72 | 2.0 | 7.0 | 0.00 | 0.00 | 0.00 | 91 | 1008.4 |
| 20260905123035 | 75 | 64 | 1.0 | 4.0 | 0.00 | 0.00 | 0.00 | 91 | 1008.5 |
| 20260905122030 | 75 | 70 | 2.0 | 6.0 | 0.00 | 0.00 | 0.00 | 91 | 1008.4 |
| 20260905121027 | 75 | 66 | 1.0 | 2.0 | 0.00 | 0.00 | 0.00 | 91 | 1008.4 |
| 20260905120023 | 75 | 51 | 1.0 | 4.0 | 0.00 | 0.00 | 0.00 | 90 | 1008.4 |